Location: Poughquag
(41.6090°N, 73.6820°W)
Time: 11:10:07
(UTC-04:00)

Vanguard 1 - Pass Details

Date: 04 June 2020
Orbit: 650 x 3833 km, 34.2° (Epoch: 07 July)

Event Time Altitude Azimuth Distance (km) Brightness Sun altitude
Rises 11:55:31 0° 284° (WNW) 7,651 14.4 67.4°
Reaches altitude 10° 12:01:08 10° 277° (W) 6,823 14.3 68.0°
Maximum altitude 12:20:45 37° 221° (SW) 4,857 14.3 69.8°
Drops below altitude 10° 12:37:16 10° 162° (SSE) 5,726 14.4 70.6°
Sets 12:41:32 0° 154° (SSE) 6,349 14.5 70.8°
